Location: Bernadets
(43.3537°N, 0.3167°E)
Time: 22:09:48
(UTC+00:00)

Cosmos 220 Rocket - Pass Details

Date: 24 October 2021
Orbit: 575 x 615 km, 74.0° (Epoch: 06 December)

Event Time Altitude Azimuth Distance (km) Brightness Sun altitude
Rises 18:29:52 0° 197° (SSW) 2,868 7.7 -16.7°
Reaches altitude 10° 18:32:07 10° 196° (SSW) 1,966 6.8 -17.1°
Maximum altitude 18:36:31 83° 109° (ESE) 621 3.9 -17.9°
Drops below altitude 10° 18:40:55 10° 22° (NNE) 1,965 6.4 -18.7°
Enters shadow 18:41:10 - 22° (NNE) 2,065 6.5 -18.8°
